NOAA 16 DEB, 41258

Orbit data source: Space-Track

NOAA 16 DEB, 41258 is space debris in SSO originally from a launch on Thu, 21 Sep 2000 UTC launched from the Air Force Western Test Range (AFWTR). Debris objects in space refer to the collection of defunct objects orbiting the Earth. Examples of debris include non-operational satellites, rocket bodies, and fragments generated from explosions, collisions, or faulty payload assembly.

Loading next visibility...
Identifier
41258, 2000-055FJ
Orbit
SSO
Country
Flag of USUS
Related business
Manufacturer
Unknown
Mission
Spacecraft
Bus & Motor
Unknown
Mass
Unknown
Launch date (UTC)
2000-09-21 (25 years ago)
Launch vehicle
Unknown
Launch site
Air Force Western Test Range (AFWTR)
Object type
Payload
Rocket body
Debris
Shape & HBR
Unknown shape, 0.1 m
Radar Cross Section
Small (<0.1 m²)

Expand to show TLE details & history
Last TLE update: 18 hours ago

TLE from 18 hours ago
0 NOAA 16 DEB
1 41258U 00055FJ  25299.63810838  .00012008  00000-0  26656-2 0  9992
2 41258  98.9923 180.4291 0044054  41.7929 318.6617 14.56616029512488
Epoch: 2025-10-26T15:18Z
TLE epoch observation values (Epoch: 2025-10-26T15:18:52.564Z)
Latitude
-0.00002°
Longitude
-84.54135°
Altitude
683.706 km
Speed
7.527 km/s
True Right ascension
12h 01m 42s
True Declination
0° 00' 00"
Sunlit
Object was in daylight at epoch
Visualization orbit readout
Latitude
Unknown
Longitude
Unknown
Altitude
Unknown
Speed
Unknown
Apparent Right ascension
Unknown
Apparent Declination
Unknown
Sunlit
N/A
Visualization observer readout
Local Sidereal Time
04:20:26
Azimuth
Unknown
Elevation
Unknown
Doppler factor
Unknown
Orbital elements
Apogee altitude
732.433 km
Perigee altitude
670.058 km
Semi-major axis
7,079.382 km
Eccentricity
0.00441
Inclination
98.9923°
RAAN
180.4291°
Arg. of periapsis
41.7929°
True anomaly
318.32688°
Mean anomaly
318.6617°
Eccentric anomaly
318.49443°
Mean motion
3.64376 °/min
Orbital period
98.8 mins
BSTAR
0.0026656
Loading maneuver chart data...
Computing Atmospheric mass density...
Loading historical data...
Loading historical data...
Loading historical data...
Loading historical data...
Loading historical data...
Loading historical data...
Loading historical data...

Documentation

Showing up to 5 results
|